www.pogodaiklimat.ru

Погода и климат >> Архив погоды >> Россия >> Тува >> Тоора-Хем


АРХИВ ПОГОДЫ в Тоора-Хем

Время (UTC), дата Ветер
(напр.,м/с)
 
Видим.   Явления Облачность Т
(С)
Тd
(С)
f
(%)
Тe
(С)
Тes
(С)
Комфортность P
(гПа)
Po
(гПа)
Тmin
(С)
Tmax
(С)
R
(мм)
R24
(мм)
S
(см)
12 11.02 штиль 0 50 км ясно -28.6 -32.4 70 -29 -29 1046.2 921.6 -17.5
15 11.02 штиль 0 50 км ясно -35.1 -38.0 75 -35 -35 опасность
обморожения
1050.7 922.3
18 11.02 штиль 0 50 км ясно -38.8 -41.8 73 -39 -39 опасность
обморожения
1053.6 923.0
21 11.02 штиль 0 50 км ясно -41.4 -44.4 72 -41 -41 опасность
обморожения
1055.5 923.3
00 12.02 штиль 0 500 м туман ясно -42.8 -45.0 79 -43 -43 опасность
обморожения
1056.8 923.8 -42.8 16
03 12.02 штиль 0 500 м туман ясно -38.8 -41.2 78 -39 -36 опасность
обморожения
1055.0 924.2 -43.1
06 12.02 ЮЗ 1 50 км {туман} 3/0
[Ci fib]
-22.1 -29.8 50 -25 -21 1044.0 922.7
09 12.02 ЮЗ 1 50 км 3/0
[Ci fib]
-16.1 -26.6 40 -19 -18 1038.9 920.8
12 12.02 штиль 0 50 км 4/0 2000 м
[Ac trans Ci fib]
-27.6 -33.0 60 -28 -28 1045.5 921.4 -15.8
15 12.02 штиль 0 50 км 8/0 2000 м
[Ac trans Ci fib]
-33.1 -36.7 70 -33 -33 опасность
обморожения
1049.6 922.3
18 12.02 штиль 0 50 км 4/0
[Ci fib]
-35.7 -38.7 74 -36 -36 опасность
обморожения
1052.3 923.4
21 12.02 штиль 0 50 км ясно -38.0 -40.9 74 -38 -38 опасность
обморожения
1054.8 924.5
00 13.02 штиль 0 50 км ясно -39.3 -42.3 73 -39 -39 опасность
обморожения
1057.1 925.8 -39.4 16
03 13.02 штиль 0 50 км 8/0 2000 м
[Ac lent Ci fib]
-31.4 -35.0 70 -31 -30 опасность
обморожения
1054.0 927.0 -40.0
06 13.02 З 1 50 км 4/0
[Ci fib]
-20.3 -27.0 55 -23 -19 1046.7 925.9
09 13.02 штиль 0 50 км 8/0
[Cs]
-16.1 -25.3 45 -16 -15 1043.4 924.8
12 13.02 штиль 0 50 км 4/0
[Ci fib]
-24.3 -30.8 55 -24 -24 1048.4 925.4 -15.0
15 13.02 штиль 0 50 км 5/0
[Ci fib]
-23.9 -33.7 40 -24 -24 1052.2 926.1
18 13.02 штиль 0 50 км 8/0
[Ci fib]
-33.1 -36.7 70 -33 -33 опасность
обморожения
1054.3 926.5
21 13.02 штиль 0 50 км 8/0 2000 м
[Ac trans Ci fib]
-35.2 -38.0 75 -35 -35 опасность
обморожения
1055.8 926.8
00 14.02 штиль 0 50 км 6/0 2000 м
[Ac trans Ci fib]
-37.1 -40.8 68 -37 -37 опасность
обморожения
1057.8 927.5 -37.1 16
03 14.02 штиль 0 50 км 4/0
[Cs]
-30.5 -35.1 64 -31 -28 опасность
обморожения
1055.0 928.3 -37.3
06 14.02 ЮВ 1 50 км 4/0 2000 м
[Ac lent Cs]
-16.7 -24.7 50 -19 -16 1046.3 927.0
09 14.02 З 1 50 км 8/0 2000 м
[Ac trans Cc]
-13.4 -22.8 45 -16 -15 1043.6 925.8
12 14.02 штиль 0 50 км 4/0
[Ci fib]
-21.6 -27.3 60 -22 -22 1047.8 926.1 -12.0
15 14.02 штиль 0 50 км 4/0
[Ci fib]
-26.4 -30.3 70 -26 -26 1050.5 926.4
18 14.02 штиль 0 50 км 9/6 1000 м
[Sc Ac trans]
-27.0 -30.2 74 -27 -27 1050.9 926.4
21 14.02 штиль 0 50 км 8/4 1000 м
[Frnb Ac und]
-25.3 -27.8 80 -25 -25 1049.5 926.0
00 15.02 Ю 1 50 км 10/10 1000 м
[Sc]
-23.4 -25.9 80 -27 -27 1048.8 926.2 -27.8 16
03 15.02 Ю 1 50 км 10/10 1000 м
[Sc]
-20.4 -23.7 75 -23 -23 1047.7 926.6
06 15.02 штиль 0 50 км 8/3 1000 м
[Sc Ac trans]
-11.9 -19.1 55 -12 -10 1042.1 925.4
09 15.02 ЮЗ 1 50 км 3/0
[Ci fib]
-7.8 -18.5 42 -10 -9 1038.9 924.1
12 15.02 штиль 0 50 км ясно -17.7 -22.7 65 -18 -18 1043.5 924.1 -7.3
15 15.02 С 1 50 км ясно -24.6 -27.9 74 -28 -28 1047.6 924.7
18 15.02 штиль 0 50 км ясно -28.3 -31.3 75 -28 -28 1049.4 924.5
21 15.02 штиль 0 50 км ясно -31.0 -34.1 74 -31 -31 опасность
обморожения
1051.2 924.8
00 16.02 штиль 0 50 км ясно -33.4 -36.3 75 -33 -33 опасность
обморожения
1052.2 924.5 -33.4 16
03 16.02 штиль 0 50 км ясно -25.6 -29.6 69 -26 -23 1047.9 924.4 -34.0
06 16.02 штиль 0 50 км ясно -10.5 -18.9 50 -11 -5 1038.0 922.3
09 16.02 З 1 50 км 3/0
[Ci fib]
-6.5 -17.4 42 -8 -7 1033.3 919.8
12 16.02 штиль 0 50 км ясно -17.7 -21.9 70 -18 -18 1037.8 919.0 -6.2
15 16.02 штиль 0 50 км ясно -25.0 -28.1 75 -25 -25 1041.5 919.0
18 16.02 СЗ 1 50 км 4/0
[Ci fib]
-28.4 -31.5 75 -32 -32 опасность
обморожения
1043.0 918.9
21 16.02 ЮВ 1 50 км 3/0
[Ci fib]
-30.3 -33.4 74 -34 -34 опасность
обморожения
1043.7 918.5
00 17.02 СЗ 1 50 км 8/0
[Ci fib]
-30.7 -33.6 76 -35 -35 опасность
обморожения
1043.9 918.5 -31.3 16
03 17.02 штиль 0 50 км 8/0
[Ci fib]
-23.0 -26.3 74 -23 -21 1039.4 918.1
06 17.02 ЮЗ 1 50 км 8/0
[Ci fib]
-10.9 -19.3 50 -13 -9 1030.6 915.6
09 17.02 ЮЗ 1 50 км 9/0
[Cs]
-7.3 -19.0 39 -9 -8 1025.5 912.5
12 17.02 штиль 0 50 км 8/0
[Cs]
-15.0 -20.1 65 -15 -15 1027.6 911.1 -7.1
15 17.02 штиль 0 50 км 8/0
[Ci fib]
-19.7 -23.8 70 -20 -20 1028.2 909.8
18 17.02 штиль 0 50 км 8/0
[Ci fib]
-24.9 -28.1 75 -25 -25 1030.1 909.1
21 17.02 штиль 0 50 км 9/4 1000 м
[Sc Ci fib]
-26.5 -29.7 74 -27 -27 1030.1 908.4
00 18.02 штиль 0 50 км 4/1 1000 м
[Sc Ci fib]
-29.8 -32.8 75 -30 -30 1031.7 908.2 -29.8 16
03 18.02 штиль 0 50 км 4/0
[Cs]
-20.7 -24.7 70 -21 -18 1028.2 909.3 -30.7
06 18.02 З 1 50 км 3/0
[Cs]
-10.1 -18.6 50 -12 -7 1021.5 907.8
09 18.02 З 1 50 км 6/0 2000 м
[Ac trans Cs]
-4.3 -17.2 36 -6 -5 1017.3 906.3

 

Местоположение метеостанции Тоора-Хем (Тува, Россия): широта 52.47 долгота 96.10 высота над уровнем моря 920 м.

В архиве по умолчанию представлена погода в Тоора-Хем за последнюю неделю. Архивные данные за месяц целиком и за предыдущие месяцы, начиная с января 2011 года, Вы можете получить, выбрав интересующий диапазон дат из раскрывающегося списка и нажав кнопку "Ввод!".


*Определитесь, кто Вы:
робот инопланетянин человек

Внимание! Время в таблицах - всемирное. Для получения местного времени необходимо прибавить поправку, которая равна 7 ч.

Смотрите также архив погоды в соседних городах и на ближайших метеорологических станциях:

Погода в Сарыг-Сепе (Тува, Россия) (114 км)
Погода в Кызыле (Тува, Россия) (138 км)
Погода в Туране (Тува, Россия) (153 км)
Погода в Сосновке (Тува, Россия) (183 км)
Погода в Казыре (Красноярский край, Россия) (186 км)
Погода в Алыгджере (Иркутская область, Россия) (192 км)
Погода в Оленьей Речке (Красноярский край, Россия) (197 км)
Погода в Верхней Гутаре (Иркутская область, Россия) (203 км)
Погода в Нижнеусинском (Красноярский край, Россия) (210 км)
Погода в Хову-Аксы (Тува, Россия) (217 км)

Пояснения к столбцам:

Ветер - указаны скорость ветра в м/с - средняя за 10 мин, порывы в срок и между сроками (в фигурных скобках) и направление, откуда дует ветер: С - северный, СВ - северо-восточный, В - восточный, ЮВ - юго-восточный, Ю - южный, ЮЗ - юго-западный, З - западный, СЗ - северо-западный.
Видимость - горизонтальная дальность видимости в метрах или километрах. При видимости от 1 до 10 км при отсутствии осадков обычно наблюдается дымка, при ухудшении видимости до 1 км и менее - туман. В сухую погоду видимость может ухудшаться дымом, пылью или мглою.
Явления - указаны атмосферные явления, наблюдавшиеся в срок или в последний час перед сроком; фигурными скобками обозначены явления, наблюдавшиеся между сроками (за 1-3 часа до срока); квадратными скобками обозначены град или гололедные отложения с указанием их диаметра в мм.
Облачность - указаны через наклонную черту общая и нижняя облачность в баллах и высота нижней границы облаков в метрах; квадратными скобками обозначены формы облаков: Ci - перистые, Cs - перисто-слоистые, Cc - перисто-кучевые, Ac - высококучевые, As - высокослоистые, Sc - слоисто-кучевые, Ns - слоисто-дождевые, Cu - кучевые, Cb - кучево-дождевые. Подробнее классификацию облаков см. в Атласе облаков (PDF).
T - Температура воздуха - температура, измеренная на высоте 2 м над землей.
Td - Температура точки росы - температура, при понижении до которой содержащийся в воздухе водяной пар достигнет насыщения.
f - Относительная влажность воздуха - влажноcть воздуха, измеренная на высоте 2 м над землей.
Te - Эффективная температура - температура, которую ощущает одетый по сезону человек в тени. Характеристика душности погоды. При расчете учитывается влияние влажности воздуха и скорости ветра на теплоощущения человека.
Tes - Эффективная температура на солнце - температура, которую ощущает человек, с поправкой на солнечный нагрев. Характеристика знойности погоды. Зависит от высоты солнца над горизонтом, облачности и скорости ветра. Ночью, в пасмурную погоду, а также при ветре 12 м/с и более поправка равна нулю.
P - Атмосферное давление - приведенное к уровню моря атмосферное давление.
Po - Атмосферное давление - измеренное на уровне метеостанции атмосферное давление.
Tmin - Минимальная температура - минимум температуры воздуха на высоте 2 м над землей.
Tmax - Максимальная температура - максимум температуры воздуха на высоте 2 м над землей.
R - Количество осадков - Количество выпавших осадков за период времени, мм. При наведении курсора мыши на число - период времени, за который выпало указанное количество осадков.
R24 - Количество осадков - Количество выпавших осадков за 24 часа, мм.
S - Снежный покров - Высота снежного покрова, см. При наведении курсора мыши на число - состояние снежного покрова и степень покрытия местности в баллах.